Location: Detroit
(42.3310°N, 83.0460°W)
Time: 14:07:04
(UTC-04:00)

N. Korean satellite - Visible Passes

Search period start: 24 March 2023 00:00
Search period end: 03 April 2023 00:00
Orbit: 393 x 418 km, 97.3° (Epoch: 23 March)

Date Brightness Start Highest point End Pass type
(mag) Time Alt. Az. Time Alt. Az. Time Alt. Az.
25 Mar 8.2 06:36:15 10° NNE 06:39:08 32° E 06:41:57 10° SSE visible
27 Mar 8.6 06:30:37 10° NE 06:33:20 26° E 06:36:00 10° SSE visible
29 Mar 9.0 06:24:22 10° NE 06:26:51 21° E 06:29:18 10° SSE visible
31 Mar 9.3 06:17:31 10° NE 06:19:40 17° E 06:21:48 10° SE visible
02 Apr 9.5 06:10:11 10° ENE 06:11:49 13° E 06:13:26 10° SE visible
